owner,sensor,date,latitude,longitude,sea_water_turbidity,qcFlag 
SCCF RECON,ioos:station:SCCF:16:1,2008-05-01T16:00:00Z,26.4345,-81.9647,5.57,1111122 
SCCF RECON,ioos:station:SCCF:16:1,2008-05-01T17:00:00Z,26.4345,-81.9647,5.38,1111122 
SCCF RECON,ioos:station:SCCF:16:1,2008-05-01T18:00:00Z,26.4345,-81.9647,5.26,1111122 
SCCF RECON,ioos:station:SCCF:16:1,2008-05-01T19:00:00Z,26.4345,-81.9647,4.83,1111122 
SCCF RECON,ioos:station:SCCF:16:1,2008-05-01T20:00:00Z,26.4345,-81.9647,4.76,1111122 
SCCF RECON,ioos:station:SCCF:16:1,2008-05-01T21:00:00Z,26.4345,-81.9647,6.41,1111122 
SCCF RECON,ioos:station:SCCF:16:1,2008-05-01T22:00:00Z,26.4345,-81.9647,4.43,1111122 
SCCF RECON,ioos:station:SCCF:16:1,2008-05-01T23:00:00Z,26.4345,-81.9647,4.31,1111122 
SCCF RECON,ioos:station:SCCF:16:1,2008-05-02T00:00:00Z,26.4345,-81.9647,4.55,1111122 
SCCF RECON,ioos:station:SCCF:16:1,2008-05-02T01:00:00Z,26.4345,-81.9647,4.34,1111122 
SCCF RECON,ioos:station:SCCF:16:1,2008-05-02T02:00:00Z,26.4345,-81.9647,5.74,1111122 
SCCF RECON,ioos:station:SCCF:16:1,2008-05-02T03:00:00Z,26.4345,-81.9647,5.99,1111122 
SCCF RECON,ioos:station:SCCF:16:1,2008-05-02T04:00:00Z,26.4345,-81.9647,6.37,1111122 
SCCF RECON,ioos:station:SCCF:16:1,2008-05-02T05:00:00Z,26.4345,-81.9647,5.77,1111122 
SCCF RECON,ioos:station:SCCF:16:1,2008-05-02T06:00:00Z,26.4345,-81.9647,5.79,1111122 
SCCF RECON,ioos:station:SCCF:16:1,2008-05-02T07:00:00Z,26.4345,-81.9647,5.32,1111122 
SCCF RECON,ioos:station:SCCF:16:1,2008-05-02T08:00:00Z,26.4345,-81.9647,5.1,1111122 
SCCF RECON,ioos:station:SCCF:16:1,2008-05-02T09:00:00Z,26.4345,-81.9647,4.84,1111122 
SCCF RECON,ioos:station:SCCF:16:1,2008-05-02T10:00:00Z,26.4345,-81.9647,5.57,1111122 
SCCF RECON,ioos:station:SCCF:16:1,2008-05-02T11:00:00Z,26.4345,-81.9647,4.78,1111122 
SCCF RECON,ioos:station:SCCF:16:1,2008-05-02T12:00:00Z,26.4345,-81.9647,5.45,1111122 
SCCF RECON,ioos:station:SCCF:16:1,2008-05-02T13:00:00Z,26.4345,-81.9647,6.08,1111122 
SCCF RECON,ioos:station:SCCF:16:1,2008-05-02T14:00:00Z,26.4345,-81.9647,6.37,1111122 
SCCF RECON,ioos:station:SCCF:16:1,2008-05-02T15:00:00Z,26.4345,-81.9647,6.79,1111122 
SCCF RECON,ioos:station:SCCF:16:1,2008-05-02T16:00:00Z,26.4345,-81.9647,6.6,1111122 
SCCF RECON,ioos:station:SCCF:16:1,2008-05-02T17:00:00Z,26.4345,-81.9647,6.35,1111122 
SCCF RECON,ioos:station:SCCF:16:1,2008-05-02T18:00:00Z,26.4345,-81.9647,5.83,1111122 
SCCF RECON,ioos:station:SCCF:16:1,2008-05-02T19:00:00Z,26.4345,-81.9647,5.97,1111122 
SCCF RECON,ioos:station:SCCF:16:1,2008-05-02T20:00:00Z,26.4345,-81.9647,6.3,1111122 
SCCF RECON,ioos:station:SCCF:16:1,2008-05-02T21:00:00Z,26.4345,-81.9647,6.01,1111122 
SCCF RECON,ioos:station:SCCF:16:1,2008-05-02T22:00:00Z,26.4345,-81.9647,5.35,1111122 
SCCF RECON,ioos:station:SCCF:16:1,2008-05-02T23:00:00Z,26.4345,-81.9647,5.53,1111122 
SCCF RECON,ioos:station:SCCF:16:1,2008-05-03T00:00:00Z,26.4345,-81.9647,5.96,1111122 
SCCF RECON,ioos:station:SCCF:16:1,2008-05-03T01:00:00Z,26.4345,-81.9647,6.16,1111122 
SCCF RECON,ioos:station:SCCF:16:1,2008-05-03T02:00:00Z,26.4345,-81.9647,5.98,1111122 
SCCF RECON,ioos:station:SCCF:16:1,2008-05-03T03:00:00Z,26.4345,-81.9647,5.97,1111122 
SCCF RECON,ioos:station:SCCF:16:1,2008-05-03T04:00:00Z,26.4345,-81.9647,5.86,1111122 
SCCF RECON,ioos:station:SCCF:16:1,2008-05-03T05:00:00Z,26.4345,-81.9647,5.4,1111122 
SCCF RECON,ioos:station:SCCF:16:1,2008-05-03T06:00:00Z,26.4345,-81.9647,5.87,1111122 
SCCF RECON,ioos:station:SCCF:16:1,2008-05-03T07:00:00Z,26.4345,-81.9647,5.63,1111122 
SCCF RECON,ioos:station:SCCF:16:1,2008-05-03T08:00:00Z,26.4345,-81.9647,5.15,1111122 
SCCF RECON,ioos:station:SCCF:16:1,2008-05-03T09:00:00Z,26.4345,-81.9647,5.48,1111122 
SCCF RECON,ioos:station:SCCF:16:1,2008-05-03T10:00:00Z,26.4345,-81.9647,4.92,1111122 
SCCF RECON,ioos:station:SCCF:16:1,2008-05-03T11:00:00Z,26.4345,-81.9647,5.17,1111122 
SCCF RECON,ioos:station:SCCF:16:1,2008-05-03T12:00:00Z,26.4345,-81.9647,4.98,1111122 
SCCF RECON,ioos:station:SCCF:16:1,2008-05-03T13:00:00Z,26.4345,-81.9647,4.88,1111122 
SCCF RECON,ioos:station:SCCF:16:1,2008-05-03T14:00:00Z,26.4345,-81.9647,5.03,1111122 
SCCF RECON,ioos:station:SCCF:16:1,2008-05-03T15:00:00Z,26.4345,-81.9647,5.06,1111122 
SCCF RECON,ioos:station:SCCF:16:1,2008-05-03T16:00:00Z,26.4345,-81.9647,5.14,1111122 
SCCF RECON,ioos:station:SCCF:16:1,2008-05-03T17:00:00Z,26.4345,-81.9647,5.02,1111122 
SCCF RECON,ioos:station:SCCF:16:1,2008-05-03T18:00:00Z,26.4345,-81.9647,4.85,1111122 
SCCF RECON,ioos:station:SCCF:16:1,2008-05-03T19:00:00Z,26.4345,-81.9647,4.71,1111122 
SCCF RECON,ioos:station:SCCF:16:1,2008-05-03T20:00:00Z,26.4345,-81.9647,5.69,1111122 
SCCF RECON,ioos:station:SCCF:16:1,2008-05-03T21:00:00Z,26.4345,-81.9647,7.03,1111122 
SCCF RECON,ioos:station:SCCF:16:1,2008-05-03T22:00:00Z,26.4345,-81.9647,7.83,1111122 
SCCF RECON,ioos:station:SCCF:16:1,2008-05-03T23:00:00Z,26.4345,-81.9647,7.3,1111122 
SCCF RECON,ioos:station:SCCF:16:1,2008-05-04T00:00:00Z,26.4345,-81.9647,6.05,1111122 
SCCF RECON,ioos:station:SCCF:16:1,2008-05-04T01:00:00Z,26.4345,-81.9647,6.08,1111122 
SCCF RECON,ioos:station:SCCF:16:1,2008-05-04T02:00:00Z,26.4345,-81.9647,7.36,1111122 
SCCF RECON,ioos:station:SCCF:16:1,2008-05-04T03:00:00Z,26.4345,-81.9647,6.6,1111122 
SCCF RECON,ioos:station:SCCF:16:1,2008-05-04T04:00:00Z,26.4345,-81.9647,5.42,1111122 
SCCF RECON,ioos:station:SCCF:16:1,2008-05-04T05:00:00Z,26.4345,-81.9647,5.67,1111122 
SCCF RECON,ioos:station:SCCF:16:1,2008-05-04T06:00:00Z,26.4345,-81.9647,5.9,1111122 
SCCF RECON,ioos:station:SCCF:16:1,2008-05-04T07:00:00Z,26.4345,-81.9647,5.36,1111122 
SCCF RECON,ioos:station:SCCF:16:1,2008-05-04T08:00:00Z,26.4345,-81.9647,5.23,1111122 
SCCF RECON,ioos:station:SCCF:16:1,2008-05-04T09:00:00Z,26.4345,-81.9647,5.17,1111122 
SCCF RECON,ioos:station:SCCF:16:1,2008-05-04T10:00:00Z,26.4345,-81.9647,4.88,1111122 
SCCF RECON,ioos:station:SCCF:16:1,2008-05-04T11:00:00Z,26.4345,-81.9647,5.01,1111122 
SCCF RECON,ioos:station:SCCF:16:1,2008-05-04T12:00:00Z,26.4345,-81.9647,4.58,1111122 
SCCF RECON,ioos:station:SCCF:16:1,2008-05-04T13:00:00Z,26.4345,-81.9647,4.64,1111122 
SCCF RECON,ioos:station:SCCF:16:1,2008-05-04T14:00:00Z,26.4345,-81.9647,4.53,1111122 
SCCF RECON,ioos:station:SCCF:16:1,2008-05-04T15:00:00Z,26.4345,-81.9647,4.58,1111122 
SCCF RECON,ioos:station:SCCF:16:1,2008-05-04T16:00:00Z,26.4345,-81.9647,4.43,1111122 
SCCF RECON,ioos:station:SCCF:16:1,2008-05-04T17:00:00Z,26.4345,-81.9647,5.63,1111122 
SCCF RECON,ioos:station:SCCF:16:1,2008-05-04T18:00:00Z,26.4345,-81.9647,4.4,1111122 
SCCF RECON,ioos:station:SCCF:16:1,2008-05-04T19:00:00Z,26.4345,-81.9647,4.51,1111122 
SCCF RECON,ioos:station:SCCF:16:1,2008-05-04T20:00:00Z,26.4345,-81.9647,6.52,1111122 
SCCF RECON,ioos:station:SCCF:16:1,2008-05-04T21:00:00Z,26.4345,-81.9647,8.44,1111122 
SCCF RECON,ioos:station:SCCF:16:1,2008-05-04T22:00:00Z,26.4345,-81.9647,11.51,1111122 
SCCF RECON,ioos:station:SCCF:16:1,2008-05-04T23:00:00Z,26.4345,-81.9647,11.24,1111122 
SCCF RECON,ioos:station:SCCF:16:1,2008-05-05T00:00:00Z,26.4345,-81.9647,10.0,1111122 
SCCF RECON,ioos:station:SCCF:16:1,2008-05-05T01:00:00Z,26.4345,-81.9647,9.89,1111122 
SCCF RECON,ioos:station:SCCF:16:1,2008-05-05T02:00:00Z,26.4345,-81.9647,6.56,1111122 
SCCF RECON,ioos:station:SCCF:16:1,2008-05-05T03:00:00Z,26.4345,-81.9647,5.62,1111122 
SCCF RECON,ioos:station:SCCF:16:1,2008-05-05T04:00:00Z,26.4345,-81.9647,4.62,1111122 
SCCF RECON,ioos:station:SCCF:16:1,2008-05-05T05:00:00Z,26.4345,-81.9647,4.53,1111122 
SCCF RECON,ioos:station:SCCF:16:1,2008-05-05T06:00:00Z,26.4345,-81.9647,4.78,1111122 
SCCF RECON,ioos:station:SCCF:16:1,2008-05-05T07:00:00Z,26.4345,-81.9647,4.78,1111122 
SCCF RECON,ioos:station:SCCF:16:1,2008-05-05T08:00:00Z,26.4345,-81.9647,4.5,1111122 
SCCF RECON,ioos:station:SCCF:16:1,2008-05-05T09:00:00Z,26.4345,-81.9647,4.27,1111122 
SCCF RECON,ioos:station:SCCF:16:1,2008-05-05T10:00:00Z,26.4345,-81.9647,3.96,1111122 
SCCF RECON,ioos:station:SCCF:16:1,2008-05-05T11:00:00Z,26.4345,-81.9647,4.13,1111122 
SCCF RECON,ioos:station:SCCF:16:1,2008-05-05T12:00:00Z,26.4345,-81.9647,3.94,1111122 
SCCF RECON,ioos:station:SCCF:16:1,2008-05-05T13:00:00Z,26.4345,-81.9647,3.92,1111122 
SCCF RECON,ioos:station:SCCF:16:1,2008-05-05T14:00:00Z,26.4345,-81.9647,3.88,1111122 
SCCF RECON,ioos:station:SCCF:16:1,2008-05-05T15:00:00Z,26.4345,-81.9647,4.01,1111122 
SCCF RECON,ioos:station:SCCF:16:1,2008-05-05T16:00:00Z,26.4345,-81.9647,3.75,1111122 
SCCF RECON,ioos:station:SCCF:16:1,2008-05-05T17:00:00Z,26.4345,-81.9647,3.79,1111122 
SCCF RECON,ioos:station:SCCF:16:1,2008-05-05T18:00:00Z,26.4345,-81.9647,3.8,1111122 
SCCF RECON,ioos:station:SCCF:16:1,2008-05-05T19:00:00Z,26.4345,-81.9647,3.93,1111122 
SCCF RECON,ioos:station:SCCF:16:1,2008-05-05T20:00:00Z,26.4345,-81.9647,4.31,1111122 
SCCF RECON,ioos:station:SCCF:16:1,2008-05-05T21:00:00Z,26.4345,-81.9647,6.56,1111122 
SCCF RECON,ioos:station:SCCF:16:1,2008-05-05T22:00:00Z,26.4345,-81.9647,9.09,1111122 
SCCF RECON,ioos:station:SCCF:16:1,2008-05-05T23:00:00Z,26.4345,-81.9647,10.28,1111122 
SCCF RECON,ioos:station:SCCF:16:1,2008-05-06T00:00:00Z,26.4345,-81.9647,14.28,1111122 
SCCF RECON,ioos:station:SCCF:16:1,2008-05-06T01:00:00Z,26.4345,-81.9647,15.51,1111122 
SCCF RECON,ioos:station:SCCF:16:1,2008-05-06T02:00:00Z,26.4345,-81.9647,7.57,1111122 
SCCF RECON,ioos:station:SCCF:16:1,2008-05-06T03:00:00Z,26.4345,-81.9647,6.65,1111122 
SCCF RECON,ioos:station:SCCF:16:1,2008-05-06T04:00:00Z,26.4345,-81.9647,6.13,1111122 
SCCF RECON,ioos:station:SCCF:16:1,2008-05-06T05:00:00Z,26.4345,-81.9647,4.97,1111122 
SCCF RECON,ioos:station:SCCF:16:1,2008-05-06T06:00:00Z,26.4345,-81.9647,4.52,1111122 
SCCF RECON,ioos:station:SCCF:16:1,2008-05-06T07:00:00Z,26.4345,-81.9647,4.49,1111122 
SCCF RECON,ioos:station:SCCF:16:1,2008-05-06T08:00:00Z,26.4345,-81.9647,4.65,1111122 
SCCF RECON,ioos:station:SCCF:16:1,2008-05-06T09:00:00Z,26.4345,-81.9647,4.28,1111122 
SCCF RECON,ioos:station:SCCF:16:1,2008-05-06T10:00:00Z,26.4345,-81.9647,4.28,1111122 
SCCF RECON,ioos:station:SCCF:16:1,2008-05-06T11:00:00Z,26.4345,-81.9647,4.42,1111122 
SCCF RECON,ioos:station:SCCF:16:1,2008-05-06T12:00:00Z,26.4345,-81.9647,4.43,1111122 
SCCF RECON,ioos:station:SCCF:16:1,2008-05-06T13:00:00Z,26.4345,-81.9647,4.28,1111122 
SCCF RECON,ioos:station:SCCF:16:1,2008-05-06T14:00:00Z,26.4345,-81.9647,4.16,1111122 
SCCF RECON,ioos:station:SCCF:16:1,2008-05-06T15:00:00Z,26.4345,-81.9647,3.97,1111122 
SCCF RECON,ioos:station:SCCF:16:1,2008-05-06T16:00:00Z,26.4345,-81.9647,4.13,1111122 
SCCF RECON,ioos:station:SCCF:16:1,2008-05-06T17:00:00Z,26.4345,-81.9647,4.2,1111122 
SCCF RECON,ioos:station:SCCF:16:1,2008-05-06T18:00:00Z,26.4345,-81.9647,4.16,1111122 
SCCF RECON,ioos:station:SCCF:16:1,2008-05-06T19:00:00Z,26.4345,-81.9647,4.13,1111122 
SCCF RECON,ioos:station:SCCF:16:1,2008-05-06T20:00:00Z,26.4345,-81.9647,4.09,1111122 
SCCF RECON,ioos:station:SCCF:16:1,2008-05-06T21:00:00Z,26.4345,-81.9647,5.1,1111122 
SCCF RECON,ioos:station:SCCF:16:1,2008-05-06T22:00:00Z,26.4345,-81.9647,6.58,1111122 
SCCF RECON,ioos:station:SCCF:16:1,2008-05-06T23:00:00Z,26.4345,-81.9647,10.58,1111122 
SCCF RECON,ioos:station:SCCF:16:1,2008-05-07T00:00:00Z,26.4345,-81.9647,13.27,1111122 
SCCF RECON,ioos:station:SCCF:16:1,2008-05-07T01:00:00Z,26.4345,-81.9647,16.14,1111122 
SCCF RECON,ioos:station:SCCF:16:1,2008-05-07T02:00:00Z,26.4345,-81.9647,8.47,1111122 
SCCF RECON,ioos:station:SCCF:16:1,2008-05-07T03:00:00Z,26.4345,-81.9647,6.31,1111122 
SCCF RECON,ioos:station:SCCF:16:1,2008-05-07T04:00:00Z,26.4345,-81.9647,6.54,1111122 
SCCF RECON,ioos:station:SCCF:16:1,2008-05-07T05:00:00Z,26.4345,-81.9647,6.89,1111122 
SCCF RECON,ioos:station:SCCF:16:1,2008-05-07T06:00:00Z,26.4345,-81.9647,5.61,1111122 
SCCF RECON,ioos:station:SCCF:16:1,2008-05-07T07:00:00Z,26.4345,-81.9647,4.71,1111122 
SCCF RECON,ioos:station:SCCF:16:1,2008-05-07T08:00:00Z,26.4345,-81.9647,4.66,1111122 
SCCF RECON,ioos:station:SCCF:16:1,2008-05-07T09:00:00Z,26.4345,-81.9647,4.59,1111122 
SCCF RECON,ioos:station:SCCF:16:1,2008-05-07T10:00:00Z,26.4345,-81.9647,4.49,1111122 
SCCF RECON,ioos:station:SCCF:16:1,2008-05-07T11:00:00Z,26.4345,-81.9647,4.73,1111122 
SCCF RECON,ioos:station:SCCF:16:1,2008-05-07T12:00:00Z,26.4345,-81.9647,4.37,1111122 
SCCF RECON,ioos:station:SCCF:16:1,2008-05-07T13:00:00Z,26.4345,-81.9647,4.33,1111122 
SCCF RECON,ioos:station:SCCF:16:1,2008-05-07T14:00:00Z,26.4345,-81.9647,4.06,1111122 
SCCF RECON,ioos:station:SCCF:16:1,2008-05-07T15:00:00Z,26.4345,-81.9647,4.04,1111122 
SCCF RECON,ioos:station:SCCF:16:1,2008-05-07T16:00:00Z,26.4345,-81.9647,4.13,1111122 
SCCF RECON,ioos:station:SCCF:16:1,2008-05-07T17:00:00Z,26.4345,-81.9647,4.07,1111122 
SCCF RECON,ioos:station:SCCF:16:1,2008-05-07T18:00:00Z,26.4345,-81.9647,3.98,1111122 
SCCF RECON,ioos:station:SCCF:16:1,2008-05-07T19:00:00Z,26.4345,-81.9647,4.14,1111122 
SCCF RECON,ioos:station:SCCF:16:1,2008-05-07T20:00:00Z,26.4345,-81.9647,4.04,1111122 
SCCF RECON,ioos:station:SCCF:16:1,2008-05-07T21:00:00Z,26.4345,-81.9647,4.23,1111122 
SCCF RECON,ioos:station:SCCF:16:1,2008-05-07T22:00:00Z,26.4345,-81.9647,5.32,1111122 
SCCF RECON,ioos:station:SCCF:16:1,2008-05-07T23:00:00Z,26.4345,-81.9647,7.02,1111122 
SCCF RECON,ioos:station:SCCF:16:1,2008-05-08T00:00:00Z,26.4345,-81.9647,8.2,1111122 
SCCF RECON,ioos:station:SCCF:16:1,2008-05-08T01:00:00Z,26.4345,-81.9647,9.49,1111122 
SCCF RECON,ioos:station:SCCF:16:1,2008-05-08T02:00:00Z,26.4345,-81.9647,10.08,1111122 
SCCF RECON,ioos:station:SCCF:16:1,2008-05-08T03:00:00Z,26.4345,-81.9647,6.48,1111122 
SCCF RECON,ioos:station:SCCF:16:1,2008-05-08T04:00:00Z,26.4345,-81.9647,5.21,1111122 
SCCF RECON,ioos:station:SCCF:16:1,2008-05-08T05:00:00Z,26.4345,-81.9647,5.46,1111122 
SCCF RECON,ioos:station:SCCF:16:1,2008-05-08T06:00:00Z,26.4345,-81.9647,4.81,1111122 
SCCF RECON,ioos:station:SCCF:16:1,2008-05-08T07:00:00Z,26.4345,-81.9647,4.59,1111122 
SCCF RECON,ioos:station:SCCF:16:1,2008-05-08T08:00:00Z,26.4345,-81.9647,4.62,1111122 
SCCF RECON,ioos:station:SCCF:16:1,2008-05-08T09:00:00Z,26.4345,-81.9647,4.55,1111122 
SCCF RECON,ioos:station:SCCF:16:1,2008-05-08T10:00:00Z,26.4345,-81.9647,4.43,1111122 
SCCF RECON,ioos:station:SCCF:16:1,2008-05-08T11:00:00Z,26.4345,-81.9647,4.34,1111122 
SCCF RECON,ioos:station:SCCF:16:1,2008-05-08T12:00:00Z,26.4345,-81.9647,5.16,1111122 
SCCF RECON,ioos:station:SCCF:16:1,2008-05-08T13:00:00Z,26.4345,-81.9647,5.33,1111122 
SCCF RECON,ioos:station:SCCF:16:1,2008-05-08T14:00:00Z,26.4345,-81.9647,4.89,1111122 
SCCF RECON,ioos:station:SCCF:16:1,2008-05-08T15:00:00Z,26.4345,-81.9647,5.69,1111122 
SCCF RECON,ioos:station:SCCF:16:1,2008-05-08T16:00:00Z,26.4345,-81.9647,5.84,1111122 
SCCF RECON,ioos:station:SCCF:16:1,2008-05-08T17:00:00Z,26.4345,-81.9647,6.73,1111122 
SCCF RECON,ioos:station:SCCF:16:1,2008-05-08T18:00:00Z,26.4345,-81.9647,5.94,1111122 
SCCF RECON,ioos:station:SCCF:16:1,2008-05-08T19:00:00Z,26.4345,-81.9647,5.68,1111122 
SCCF RECON,ioos:station:SCCF:16:1,2008-05-08T20:00:00Z,26.4345,-81.9647,5.47,1111122 
SCCF RECON,ioos:station:SCCF:16:1,2008-05-08T21:00:00Z,26.4345,-81.9647,6.12,1111122 
SCCF RECON,ioos:station:SCCF:16:1,2008-05-08T22:00:00Z,26.4345,-81.9647,6.25,1111122 
SCCF RECON,ioos:station:SCCF:16:1,2008-05-08T23:00:00Z,26.4345,-81.9647,6.77,1111122 
SCCF RECON,ioos:station:SCCF:16:1,2008-05-09T00:00:00Z,26.4345,-81.9647,8.11,1111122 
SCCF RECON,ioos:station:SCCF:16:1,2008-05-09T01:00:00Z,26.4345,-81.9647,7.94,1111122 
SCCF RECON,ioos:station:SCCF:16:1,2008-05-09T02:00:00Z,26.4345,-81.9647,11.43,1111122 
SCCF RECON,ioos:station:SCCF:16:1,2008-05-09T03:00:00Z,26.4345,-81.9647,10.7,1111122 
SCCF RECON,ioos:station:SCCF:16:1,2008-05-09T04:00:00Z,26.4345,-81.9647,6.56,1111122 
SCCF RECON,ioos:station:SCCF:16:1,2008-05-09T05:00:00Z,26.4345,-81.9647,5.91,1111122 
SCCF RECON,ioos:station:SCCF:16:1,2008-05-09T06:00:00Z,26.4345,-81.9647,6.01,1111122 
SCCF RECON,ioos:station:SCCF:16:1,2008-05-09T07:00:00Z,26.4345,-81.9647,8.02,1111122 
SCCF RECON,ioos:station:SCCF:16:1,2008-05-09T08:00:00Z,26.4345,-81.9647,9.2,1111122 
SCCF RECON,ioos:station:SCCF:16:1,2008-05-09T09:00:00Z,26.4345,-81.9647,14.75,1111122 
SCCF RECON,ioos:station:SCCF:16:1,2008-05-09T10:00:00Z,26.4345,-81.9647,11.59,1111122 
SCCF RECON,ioos:station:SCCF:16:1,2008-05-09T11:00:00Z,26.4345,-81.9647,11.82,1111122 
SCCF RECON,ioos:station:SCCF:16:1,2008-05-09T12:00:00Z,26.4345,-81.9647,9.1,1111122 
SCCF RECON,ioos:station:SCCF:16:1,2008-05-09T13:00:00Z,26.4345,-81.9647,14.47,1111122 
SCCF RECON,ioos:station:SCCF:16:1,2008-05-09T14:00:00Z,26.4345,-81.9647,7.26,1111122 
SCCF RECON,ioos:station:SCCF:16:1,2008-05-09T15:00:00Z,26.4345,-81.9647,5.55,1111122 
SCCF RECON,ioos:station:SCCF:16:1,2008-05-09T16:00:00Z,26.4345,-81.9647,5.19,1111122 
SCCF RECON,ioos:station:SCCF:16:1,2008-05-09T17:00:00Z,26.4345,-81.9647,4.93,1111122 
SCCF RECON,ioos:station:SCCF:16:1,2008-05-09T18:00:00Z,26.4345,-81.9647,9.37,1111122 
SCCF RECON,ioos:station:SCCF:16:1,2008-05-09T19:00:00Z,26.4345,-81.9647,6.1,1111122 
SCCF RECON,ioos:station:SCCF:16:1,2008-05-09T20:00:00Z,26.4345,-81.9647,5.68,1111122 
SCCF RECON,ioos:station:SCCF:16:1,2008-05-09T21:00:00Z,26.4345,-81.9647,7.3,1111122 
SCCF RECON,ioos:station:SCCF:16:1,2008-05-09T22:00:00Z,26.4345,-81.9647,4.77,1111122 
SCCF RECON,ioos:station:SCCF:16:1,2008-05-09T23:00:00Z,26.4345,-81.9647,5.11,1111122 
SCCF RECON,ioos:station:SCCF:16:1,2008-05-10T00:00:00Z,26.4345,-81.9647,8.21,1111122 
SCCF RECON,ioos:station:SCCF:16:1,2008-05-10T01:00:00Z,26.4345,-81.9647,7.87,1111122 
SCCF RECON,ioos:station:SCCF:16:1,2008-05-10T02:00:00Z,26.4345,-81.9647,7.89,1111122 
SCCF RECON,ioos:station:SCCF:16:1,2008-05-10T03:00:00Z,26.4345,-81.9647,12.56,1111122 
SCCF RECON,ioos:station:SCCF:16:1,2008-05-10T04:00:00Z,26.4345,-81.9647,10.23,1111122 
SCCF RECON,ioos:station:SCCF:16:1,2008-05-10T05:00:00Z,26.4345,-81.9647,10.25,1111122 
SCCF RECON,ioos:station:SCCF:16:1,2008-05-10T06:00:00Z,26.4345,-81.9647,9.69,1111122 
SCCF RECON,ioos:station:SCCF:16:1,2008-05-10T07:00:00Z,26.4345,-81.9647,5.66,1111122 
SCCF RECON,ioos:station:SCCF:16:1,2008-05-10T08:00:00Z,26.4345,-81.9647,6.33,1111122 
SCCF RECON,ioos:station:SCCF:16:1,2008-05-10T09:00:00Z,26.4345,-81.9647,5.3,1111122 
SCCF RECON,ioos:station:SCCF:16:1,2008-05-10T10:00:00Z,26.4345,-81.9647,5.59,1111122 
SCCF RECON,ioos:station:SCCF:16:1,2008-05-10T11:00:00Z,26.4345,-81.9647,5.38,1111122 
SCCF RECON,ioos:station:SCCF:16:1,2008-05-10T12:00:00Z,26.4345,-81.9647,5.06,1111122 
SCCF RECON,ioos:station:SCCF:16:1,2008-05-10T13:00:00Z,26.4345,-81.9647,4.84,1111122 
SCCF RECON,ioos:station:SCCF:16:1,2008-05-10T14:00:00Z,26.4345,-81.9647,4.69,1111122 
SCCF RECON,ioos:station:SCCF:16:1,2008-05-10T15:00:00Z,26.4345,-81.9647,4.61,1111122 
SCCF RECON,ioos:station:SCCF:16:1,2008-05-10T16:00:00Z,26.4345,-81.9647,4.65,1111122 
SCCF RECON,ioos:station:SCCF:16:1,2008-05-10T17:00:00Z,26.4345,-81.9647,4.36,1111122 
SCCF RECON,ioos:station:SCCF:16:1,2008-05-10T18:00:00Z,26.4345,-81.9647,4.2,1111122 
SCCF RECON,ioos:station:SCCF:16:1,2008-05-10T19:00:00Z,26.4345,-81.9647,4.38,1111122 
SCCF RECON,ioos:station:SCCF:16:1,2008-05-10T20:00:00Z,26.4345,-81.9647,6.6,1111122 
SCCF RECON,ioos:station:SCCF:16:1,2008-05-10T21:00:00Z,26.4345,-81.9647,4.67,1111122 
SCCF RECON,ioos:station:SCCF:16:1,2008-05-10T22:00:00Z,26.4345,-81.9647,5.97,1111122 
SCCF RECON,ioos:station:SCCF:16:1,2008-05-10T23:00:00Z,26.4345,-81.9647,4.36,1111122 
SCCF RECON,ioos:station:SCCF:16:1,2008-05-11T00:00:00Z,26.4345,-81.9647,4.28,1111122 
SCCF RECON,ioos:station:SCCF:16:1,2008-05-11T01:00:00Z,26.4345,-81.9647,4.89,1111122 
SCCF RECON,ioos:station:SCCF:16:1,2008-05-11T02:00:00Z,26.4345,-81.9647,5.48,1111122 
SCCF RECON,ioos:station:SCCF:16:1,2008-05-11T03:00:00Z,26.4345,-81.9647,5.31,1111122 
SCCF RECON,ioos:station:SCCF:16:1,2008-05-11T04:00:00Z,26.4345,-81.9647,6.09,1111122 
SCCF RECON,ioos:station:SCCF:16:1,2008-05-11T05:00:00Z,26.4345,-81.9647,6.18,1111122 
SCCF RECON,ioos:station:SCCF:16:1,2008-05-11T06:00:00Z,26.4345,-81.9647,5.05,1111122 
SCCF RECON,ioos:station:SCCF:16:1,2008-05-11T07:00:00Z,26.4345,-81.9647,5.42,1111122 
SCCF RECON,ioos:station:SCCF:16:1,2008-05-11T08:00:00Z,26.4345,-81.9647,5.98,1111122 
SCCF RECON,ioos:station:SCCF:16:1,2008-05-11T09:00:00Z,26.4345,-81.9647,5.48,1111122 
SCCF RECON,ioos:station:SCCF:16:1,2008-05-11T10:00:00Z,26.4345,-81.9647,4.56,1111122 
SCCF RECON,ioos:station:SCCF:16:1,2008-05-11T11:00:00Z,26.4345,-81.9647,4.77,1111122 
SCCF RECON,ioos:station:SCCF:16:1,2008-05-11T12:00:00Z,26.4345,-81.9647,7.76,1111122 
SCCF RECON,ioos:station:SCCF:16:1,2008-05-11T13:00:00Z,26.4345,-81.9647,4.92,1111122 
SCCF RECON,ioos:station:SCCF:16:1,2008-05-11T14:00:00Z,26.4345,-81.9647,4.45,1111122 
SCCF RECON,ioos:station:SCCF:16:1,2008-05-11T15:00:00Z,26.4345,-81.9647,4.38,1111122 
SCCF RECON,ioos:station:SCCF:16:1,2008-05-11T16:00:00Z,26.4345,-81.9647,4.8,1111122 
SCCF RECON,ioos:station:SCCF:16:1,2008-05-11T17:00:00Z,26.4345,-81.9647,4.41,1111122 
SCCF RECON,ioos:station:SCCF:16:1,2008-05-11T18:00:00Z,26.4345,-81.9647,4.23,1111122 
SCCF RECON,ioos:station:SCCF:16:1,2008-05-11T19:00:00Z,26.4345,-81.9647,4.47,1111122 
SCCF RECON,ioos:station:SCCF:16:1,2008-05-11T20:00:00Z,26.4345,-81.9647,4.24,1111122 
SCCF RECON,ioos:station:SCCF:16:1,2008-05-11T21:00:00Z,26.4345,-81.9647,4.91,1111122 
SCCF RECON,ioos:station:SCCF:16:1,2008-05-11T22:00:00Z,26.4345,-81.9647,4.64,1111122 
SCCF RECON,ioos:station:SCCF:16:1,2008-05-11T23:00:00Z,26.4345,-81.9647,4.48,1111122 
SCCF RECON,ioos:station:SCCF:16:1,2008-05-12T00:00:00Z,26.4345,-81.9647,4.73,1111122 
SCCF RECON,ioos:station:SCCF:16:1,2008-05-12T01:00:00Z,26.4345,-81.9647,4.74,1111122 
SCCF RECON,ioos:station:SCCF:16:1,2008-05-12T02:00:00Z,26.4345,-81.9647,4.8,1111122 
SCCF RECON,ioos:station:SCCF:16:1,2008-05-12T03:00:00Z,26.4345,-81.9647,4.69,1111122 
SCCF RECON,ioos:station:SCCF:16:1,2008-05-12T04:00:00Z,26.4345,-81.9647,5.29,1111122 
SCCF RECON,ioos:station:SCCF:16:1,2008-05-12T05:00:00Z,26.4345,-81.9647,5.31,1111122 
SCCF RECON,ioos:station:SCCF:16:1,2008-05-12T06:00:00Z,26.4345,-81.9647,5.32,1111122 
SCCF RECON,ioos:station:SCCF:16:1,2008-05-12T07:00:00Z,26.4345,-81.9647,6.11,1111122 
SCCF RECON,ioos:station:SCCF:16:1,2008-05-12T08:00:00Z,26.4345,-81.9647,8.34,1111122 
SCCF RECON,ioos:station:SCCF:16:1,2008-05-12T09:00:00Z,26.4345,-81.9647,11.66,1111122 
SCCF RECON,ioos:station:SCCF:16:1,2008-05-12T10:00:00Z,26.4345,-81.9647,12.03,1111122 
SCCF RECON,ioos:station:SCCF:16:1,2008-05-12T11:00:00Z,26.4345,-81.9647,13.28,1111122 
SCCF RECON,ioos:station:SCCF:16:1,2008-05-12T12:00:00Z,26.4345,-81.9647,16.93,1111122 
SCCF RECON,ioos:station:SCCF:16:1,2008-05-12T13:00:00Z,26.4345,-81.9647,15.54,1111122 
SCCF RECON,ioos:station:SCCF:16:1,2008-05-12T14:00:00Z,26.4345,-81.9647,15.47,1111122 
SCCF RECON,ioos:station:SCCF:16:1,2008-05-12T15:00:00Z,26.4345,-81.9647,11.56,1111122 
SCCF RECON,ioos:station:SCCF:16:1,2008-05-12T16:00:00Z,26.4345,-81.9647,10.24,1111122 
SCCF RECON,ioos:station:SCCF:16:1,2008-05-12T17:00:00Z,26.4345,-81.9647,9.87,1111122 
SCCF RECON,ioos:station:SCCF:16:1,2008-05-12T18:00:00Z,26.4345,-81.9647,8.14,1111122 
SCCF RECON,ioos:station:SCCF:16:1,2008-05-12T19:00:00Z,26.4345,-81.9647,7.01,1111122 
SCCF RECON,ioos:station:SCCF:16:1,2008-05-12T20:00:00Z,26.4345,-81.9647,6.68,1111122 
SCCF RECON,ioos:station:SCCF:16:1,2008-05-12T21:00:00Z,26.4345,-81.9647,6.29,1111122 
SCCF RECON,ioos:station:SCCF:16:1,2008-05-12T22:00:00Z,26.4345,-81.9647,7.27,1111122 
SCCF RECON,ioos:station:SCCF:16:1,2008-05-12T23:00:00Z,26.4345,-81.9647,8.18,1111122 
SCCF RECON,ioos:station:SCCF:16:1,2008-05-13T00:00:00Z,26.4345,-81.9647,9.39,1111122 
SCCF RECON,ioos:station:SCCF:16:1,2008-05-13T01:00:00Z,26.4345,-81.9647,10.21,1111122 
SCCF RECON,ioos:station:SCCF:16:1,2008-05-13T02:00:00Z,26.4345,-81.9647,10.83,1111122 
SCCF RECON,ioos:station:SCCF:16:1,2008-05-13T03:00:00Z,26.4345,-81.9647,13.15,1111122 
SCCF RECON,ioos:station:SCCF:16:1,2008-05-13T04:00:00Z,26.4345,-81.9647,10.05,1111122 
SCCF RECON,ioos:station:SCCF:16:1,2008-05-13T05:00:00Z,26.4345,-81.9647,5.14,1111122 